Location: Unspecified
(52.4292°N, 19.3359°E)
Time: 01:13:55
(UTC+02:00)

Altair - Pass Details

Date: 20 May 2024
Orbit: 1502 x 1682 km, 47.2° (Epoch: 20 June)

Event Time Altitude Azimuth Distance (km) Brightness Sun altitude
Rises 09:02:10 0° 171° (S) 4,812 10.4 37.4°
Reaches altitude 10° 09:07:49 10° 145° (SE) 3,871 10.4 38.2°
Maximum altitude 09:11:28 13° 123° (ESE) 3,688 10.8 38.7°
Drops below altitude 10° 09:15:09 10° 101° (E) 3,918 10.9 39.2°
Sets 09:20:55 0° 76° (ENE) 4,932 10.8 40.1°
